{"data":{"norad_id":62156,"epoch":"2026-05-25T03:20:49.670592Z","epoch_age_seconds":73317,"freshness":"FRESH","line1":"1 62156U 24224T   26145.13946378  .00018205  00000+0  66916-3 0  9999","line2":"2 62156  42.9993  86.2159 0001475 260.4628  99.6057 15.27594469 84015","mean_motion":15.27594469,"eccentricity":0.0001475,"inclination_deg":42.9993,"raan_deg":86.2159,"arg_perigee_deg":260.4628,"mean_anomaly_deg":99.6057,"bstar":0.00066916,"rev_number":8401,"period_min":94.265855842137,"perigee_km":481.99375243171,"apogee_km":484.01778954915,"semimajor_km":6861.1427709904,"source":"CELESTRAK","updated_at":"2026-05-25T13:38:19.595854Z"}}